SCP
0 0 0 0 0 0 0 0 0 0 0 0 0 0 0 0 0 0 0 0 0 0 0 0 0 0 0 0 0 0 0 0 0 0 0 0 0 0 0 0 0 0 0
0 0 0 0 0 0 0 0 0 0 0 0 0 0 0 0 0 0 0 0 0 0 0 0 0 0 0 0 0 0 0 0 0 0 0 0 0 0 0 0 0 0 0
0 0 0 0 0 0 0 0 0 0 0 0 0 0 0 0 0 0 0 0 0 0 0 0 0 0 0 0 0 0 0 0 0 0 0 0 0 0 0 0 0 0 0
0 0 0 0 0 0 0 0 0 0 0 0 0 0 0 0 0 0 0 0 0 0 0 0 0 0 0 0 0 0 0 0 0 0 0 0 0 0 0 0 0 0 0
0 0 0 0 0 0 0 0 0 0 0 0 0 0 0 0 0 0 0 0 0 0 0 0 0 0 0 0 0 0 0 0 0 0 0 0 0 0 0 0 0 0 -0
0 0 0 0 0 0 0 0 0 0 0 0 0 0 0 0 0 0 0 0 0 0 0 0 0 0 0 0 0 0 0 0 0 0 0 0 0 0 0 0 0 -0 -0
0 0 0 0 0 0 0 0 0 0 0 0 0 0 0 0 0 0 0 0 0 0 0 0 0 0 0 0 0 0 0 0 0 0 0 0 0 0 0 0 0 0 0
0 0 0 0 0 0 0 0 0 0 0 0 0 0 0 0 0 0 0 0 0 0 0 0 0 0 0 0 0 0 0 0 0 0 0 0 0 0 0 0 0 0 0
0 0 0 0 0 0 0 0 0 0 0 0 0 0 0 0 0 0 0 0 0 0 0 0 0 0 0 0 0 0 0 0 0 0 0 0 0 0 0 0 0 0 0
0 0 0 0 0 0 0 0 0 0 0 0 0 0 0 0 0 0 0 0 0 0 0 0 0 0 0 0 0 0 0 0 0 0 0 0 0 0 0 0 0 0 0
0 0 0 0 0 0 0 0 0 0 0 0 0 0 0 0 0 0 0 0 0 0 0 0 0 0 0 0 0 0 0 0 0 0 0 0 0 0 0 0 0 0 0
0 0 0 0 0 0 0 0 0 0 0 0 0 0 0 0 0 0 0 0 0 0 0 0 0 0 0 0 0 0 0 0 0 0 0 0 0 0 0 0 0 0 0
0 0 0 0 0 0 0 0 0 0 0 0 0 0 0 0 0 0 0 0 0 0 0 0 0 0 0 0 0 0 0 0 0 0 0 0 0 0 0 0 0 0 0
0 0 0 0 0 0 0 0 0 0 0 0 0 0 0 0 0 0 0 0 0 0 0 0 0 0 0 0 0 0 0 0 0 0 0 0 0 0 0 0 0 0 0
0 0 0 0 0 0 0 0 0 0 0 0 0 0 0 0 0 0 0 0 0 0 0 0 0 0 0 0 0 0 0 0 0 0 0 0 0 0 0 0 0 0 0
0 0 0 0 0 0 0 0 0 0 0 0 0 0 0 0 0 0 0 0 0 0 0 0 0 0 0 0 0 0 0 0 0 0 0 0 0 0 0 0 0 0 0
0 0 0 0 0 0 0 0 0 0 0 0 0 0 0 0 0 0 0 0 0 0 0 0 0 0 0 0 0 0 0 0 0 0 0 0 0 0 0 0 0 0 0
0 0 0 0 0 0 0 0 0 0 0 0 0 0 0 0 0 0 0 0 0 0 0 0 0 0 0 0 0 0 0 0 0 0 0 0 0 0 0 0 0 0 0
0 0 0 0 0 0 0 0 0 0 0 0 0 0 0 0 0 0 0 0 0 0 0 0 0 0 0 0 0 0 0 0 0 0 0 0 0 0 0 0 0 0 0
0 0 0 0 0 0 0 0 0 0 0 0 0 0 0 0 0 0 0 0 0 0 0 0 0 0 0 0 0 0 0 0 0 0 0 0 0 0 0 0 0 0 0
0 0 0 0 0 0 0 0 0 0 0 0 0 0 0 0 0 0 0 0 0 0 0 0 0 0 0 0 0 0 0 0 0 0 0 0 0 0 0 0 0 0 0
0 0 0 0 0 0 0 0 0 0 0 0 0 0 0 0 0 0 0 0 0 0 0 0 0 0 0 0 0 0 0 0 0 0 0 0 0 0 0 0 0 0 0
0 0 0 0 0 0 0 0 0 0 0 0 0 0 0 0 0 0 0 0 0 0 0 0 0 0 0 0 0 0 0 0 0 0 0 0 0 0 0 0 0 0 0
0 0 0 0 0 0 0 0 0 0 0 0 0 0 0 0 0 0 0 0 0 0 0 0 0 0 0 0 0 0 0 0 0 0 0 0 0 0 0 0 0 0 0
0 0 0 0 0 0 0 0 0 0 0 0 0 0 0 0 0 0 0 0 0 0 0 0 0 0 0 0 0 0 0 0 0 0 0 0 0 0 0 0 0 0 0
0 0 0 0 0 0 0 0 0 0 0 0 0 0 0 0 0 0 0 0 0 0 0 0 0 0 0 0 0 0 0 0 0 0 0 0 0 0 0 0 0 0 0
Wind_Speed_500mb
39 40 38 35 34 32 31 32 31 31 32 36 40 45 45 39 43 43 44 40 40 36 32 27 26 23 23 24 25 24 23 22 25 29 32 34 36 40 42 45 47 51 53
32 31 32 31 30 31 32 31 31 33 36 38 38 41 41 44 46 45 40 36 30 28 23 23 23 22 20 18 19 21 23 25 27 30 34 36 37 43 48 50 51 54 55
30 29 30 31 32 33 34 35 37 37 38 42 43 47 47 44 42 37 32 28 25 23 23 22 20 20 20 19 19 20 24 27 28 30 34 39 43 46 48 50 54 57 59
33 32 33 34 34 35 37 39 41 41 42 43 44 44 42 38 34 32 29 26 25 22 19 18 19 19 21 22 22 23 24 26 28 30 33 38 44 49 54 61 62 64 68
44 41 39 39 38 38 40 41 42 43 42 42 41 40 39 38 35 31 28 26 23 21 21 21 21 22 24 26 24 22 22 25 28 32 35 39 44 52 58 62 66 73 75
55 50 48 48 45 42 43 44 46 46 45 44 44 43 43 39 37 34 29 27 26 25 24 24 25 24 22 23 23 23 25 26 29 30 33 37 40 48 54 61 68 77 85
61 61 58 54 49 49 49 49 50 50 49 49 47 46 43 40 37 32 30 28 27 26 26 26 25 23 23 21 21 22 24 26 28 30 33 39 44 48 54 57 59 63 68
71 69 65 62 60 58 56 55 55 55 53 52 51 48 45 40 38 35 32 29 29 30 28 25 23 22 23 21 23 24 23 23 24 28 32 35 40 45 49 54 59 64 67
81 81 79 74 68 64 64 62 61 58 58 56 53 50 46 42 39 36 34 34 33 31 27 24 23 23 25 23 21 22 21 22 24 28 33 35 37 40 47 51 54 62 72
85 86 83 80 75 72 67 65 64 62 59 58 55 51 48 45 40 37 35 35 33 29 26 26 28 27 26 24 21 21 23 24 26 27 29 33 35 37 40 44 50 54 58
78 83 86 86 79 72 68 68 66 65 63 59 57 55 54 48 39 38 38 36 33 32 27 25 25 24 24 25 23 23 25 27 27 26 28 32 34 35 37 39 43 47 49
74 76 82 85 81 76 74 71 70 68 66 64 60 58 54 48 43 38 35 31 29 26 24 23 24 23 23 24 25 26 27 26 26 29 31 35 38 40 41 41 41 43 43
66 70 74 78 80 77 76 75 74 72 69 66 63 61 56 50 44 38 33 29 30 25 28 28 25 22 22 25 25 23 22 25 28 31 34 37 40 42 43 43 41 46 49
59 64 68 75 79 76 76 75 75 75 71 67 66 63 58 54 49 42 37 35 36 36 31 24 21 21 24 24 21 21 24 26 29 32 35 38 41 42 43 47 52 57 63
53 57 65 74 76 76 75 74 74 69 64 68 68 64 63 56 47 42 39 38 36 31 24 21 21 24 23 21 20 21 24 27 29 34 37 40 42 45 46 49 53 58 61
49 55 64 70 74 74 72 71 69 63 65 65 62 58 54 48 42 41 46 43 38 27 26 25 24 23 22 22 21 21 25 29 32 34 37 41 45 48 51 51 53 58 64
48 54 61 70 74 73 72 71 67 63 63 60 61 59 61 48 45 48 45 38 36 26 28 26 23 22 24 24 23 24 25 30 32 35 38 41 46 49 52 53 55 60 64
47 53 59 70 71 69 67 65 64 61 59 57 58 57 51 43 48 46 39 41 37 29 27 24 23 24 23 25 27 26 27 30 33 35 37 40 45 51 52 53 55 60 65
49 54 58 60 60 61 65 65 65 62 56 51 52 44 43 47 45 42 42 42 32 28 25 24 25 26 27 28 28 29 30 32 34 36 36 40 43 50 52 53 56 58 62
51 54 56 58 61 62 61 60 61 59 56 51 46 44 44 44 46 45 43 36 32 30 29 27 28 29 29 30 31 32 33 34 35 36 40 43 44 50 54 55 56 60 61
53 56 58 56 56 56 57 59 58 58 55 54 49 45 45 46 46 44 41 37 33 33 35 31 29 30 31 33 34 36 36 35 35 38 42 44 48 53 53 56 57 57 60
53 53 52 52 53 54 53 53 47 49 50 46 46 47 51 53 48 43 39 37 36 37 36 34 32 32 35 36 37 37 37 36 37 43 46 48 52 55 56 57 57 56 56
49 50 51 51 51 51 46 45 47 54 56 51 48 53 54 48 43 42 40 38 39 39 38 38 36 36 38 38 38 39 38 38 41 45 48 52 55 58 58 59 57 55 54
46 48 50 51 50 52 54 55 56 53 46 49 52 51 50 47 45 42 39 39 39 39 41 41 40 38 37 38 39 40 41 43 46 48 52 56 59 60 60 58 53 51 53
48 49 47 46 49 50 50 48 47 47 51 50 49 49 47 46 44 43 41 41 42 43 43 43 41 39 39 40 42 43 45 47 49 51 55 58 61 60 58 56 52 51 50
48 45 47 50 49 44 46 47 49 49 49 48 48 47 47 46 45 44 42 44 44 44 43 44 43 43 44 45 45 46 48 50 52 54 59 61 62 59 57 54 52 52 51
Wind_Direction_500mb
237 239 238 241 247 248 248 249 245 241 237 232 239 244 245 242 245 251 249 243 241 235 235 236 243 253 261 268 273 279 284 284 287 287 291 294 299 305 309 311 314 315 317
232 234 246 248 248 248 247 242 236 230 234 238 240 244 246 249 247 242 238 232 230 232 236 243 252 253 261 275 287 292 295 297 299 303 308 311 316 317 317 318 318 318 319
241 248 249 248 248 247 245 241 239 238 238 239 238 240 241 239 235 229 227 227 230 237 243 252 263 270 273 275 280 287 293 299 306 313 319 322 322 320 318 318 319 320 323
252 254 256 253 249 244 241 238 238 238 240 240 237 237 235 230 223 218 219 223 227 231 238 246 256 266 275 280 285 291 298 306 312 316 320 323 323 324 324 322 319 324 327
258 258 259 256 248 246 243 240 238 237 236 235 234 228 221 216 217 217 220 221 225 231 239 247 255 259 270 277 284 289 296 302 307 315 323 326 327 326 332 333 330 328 329
259 257 256 254 245 243 243 242 239 235 230 225 219 216 216 215 218 222 219 221 228 236 242 247 253 259 265 274 281 290 297 306 312 319 325 328 331 331 333 335 334 334 333
259 254 252 249 244 241 238 236 232 228 225 221 219 219 220 222 224 224 224 227 233 240 246 251 257 262 268 275 285 291 298 306 314 326 334 333 334 332 332 330 330 328 326
260 252 250 247 243 237 235 233 229 225 223 221 221 222 223 223 225 224 226 229 241 245 245 246 248 254 264 276 289 296 305 318 326 332 331 330 330 328 325 326 326 323 322
260 253 249 244 241 236 234 230 227 224 222 221 221 222 223 223 222 222 234 237 232 232 234 238 243 251 266 281 294 302 313 324 329 328 325 324 325 322 321 323 324 327 330
262 254 248 243 239 235 232 229 227 224 223 221 220 220 221 222 223 234 226 223 227 227 229 235 244 251 274 295 306 316 316 317 319 320 317 318 320 321 323 327 331 332 333
262 253 246 242 238 235 232 229 226 223 220 219 220 219 220 222 224 219 217 221 224 229 230 235 248 273 289 299 308 307 307 312 313 317 319 320 321 324 328 333 332 328 327
261 254 244 238 234 230 228 226 222 222 220 221 219 221 222 223 218 216 218 223 229 234 244 255 264 273 285 293 297 298 303 312 320 323 325 324 328 332 334 335 333 325 324
261 252 242 234 230 226 224 222 220 220 221 221 221 222 223 218 217 216 229 242 241 243 253 251 258 268 280 284 285 296 310 315 318 321 323 324 327 330 332 328 326 324 326
260 250 240 231 227 223 221 221 222 222 220 220 222 219 216 214 213 226 228 231 240 243 239 245 255 267 271 275 287 297 304 311 314 317 320 323 324 325 328 328 330 329 327
254 246 236 227 223 222 222 224 223 224 227 229 224 221 217 216 228 226 230 232 230 230 233 240 250 255 263 271 281 293 301 306 313 317 318 319 322 326 329 330 330 328 328
248 238 230 225 222 220 221 219 219 221 222 221 221 220 223 222 221 227 233 230 232 227 229 236 242 250 260 269 278 291 301 306 308 311 317 322 324 326 326 328 327 325 327
242 233 227 223 221 220 217 218 216 213 217 220 219 226 226 221 220 229 229 226 234 226 234 238 242 252 264 276 292 298 298 303 311 316 322 322 321 321 321 324 324 324 324
239 233 228 225 222 219 218 218 217 217 211 215 223 222 218 215 221 225 222 226 231 227 234 242 251 260 273 283 287 291 299 307 311 316 319 318 317 316 318 321 322 322 323
239 233 231 231 229 224 224 221 219 221 222 223 222 221 213 214 218 221 222 231 236 239 243 249 258 269 276 280 285 292 298 303 307 310 313 314 315 314 318 318 319 320 320
241 236 233 231 228 226 224 222 225 224 218 215 216 215 214 218 222 224 231 237 241 247 253 258 263 269 275 281 285 288 291 294 299 306 310 313 315 314 317 318 318 318 318
245 240 235 230 226 225 224 226 223 218 216 215 216 215 221 226 226 228 233 240 244 249 253 256 261 269 275 277 279 280 284 291 298 303 305 310 314 315 316 315 315 315 315
242 239 235 229 226 226 224 218 215 220 219 215 218 222 227 228 230 233 237 242 246 250 255 259 264 268 271 274 277 280 285 292 297 298 305 310 313 315 315 313 314 314 314
235 232 231 229 223 215 210 210 211 216 219 219 222 226 230 235 235 237 241 242 245 250 255 260 263 265 268 272 277 281 287 292 292 296 302 307 311 312 312 312 312 312 312
232 231 226 223 219 216 213 217 221 222 221 225 226 229 233 236 239 242 243 244 246 251 255 259 263 265 268 272 277 282 285 286 290 297 301 306 309 310 310 310 311 310 310
230 230 230 229 234 234 230 224 224 226 228 230 232 235 238 241 242 244 244 246 249 252 257 262 265 268 271 275 278 279 282 286 291 295 299 302 305 307 308 309 311 308 308
238 234 238 236 232 232 233 232 231 231 232 234 236 239 242 243 243 243 245 249 252 255 257 261 265 269 272 274 276 279 282 286 290 295 298 301 302 304 306 307 308 305 305
Wind_Speed_850mb
39 40 38 35 34 32 31 32 31 31 32 36 40 45 45 39 43 43 44 40 40 36 32 27 26 23 23 24 25 24 23 22 25 29 32 34 36 40 42 45 47 51 53
32 31 32 31 30 31 32 31 31 33 36 38 38 41 41 44 46 45 40 36 30 28 23 23 23 22 20 18 19 21 23 25 27 30 34 36 37 43 48 50 51 54 55
30 29 30 31 32 33 34 35 37 37 38 42 43 47 47 44 42 37 32 28 25 23 23 22 20 20 20 19 19 20 24 27 28 30 34 39 43 46 48 50 54 57 59
33 32 33 34 34 35 37 39 41 41 42 43 44 44 42 38 34 32 29 26 25 22 19 18 19 19 21 22 22 23 24 26 28 30 33 38 44 49 54 61 62 64 68
44 41 39 39 38 38 40 41 42 43 42 42 41 40 39 38 35 31 28 26 23 21 21 21 21 22 24 26 24 22 22 25 28 32 35 39 44 52 58 62 66 73 75
55 50 48 48 45 42 43 44 46 46 45 44 44 43 43 39 37 34 29 27 26 25 24 24 25 24 22 23 23 23 25 26 29 30 33 37 40 48 54 61 68 77 85
61 61 58 54 49 49 49 49 50 50 49 49 47 46 43 40 37 32 30 28 27 26 26 26 25 23 23 21 21 22 24 26 28 30 33 39 44 48 54 57 59 63 68
71 69 65 62 60 58 56 55 55 55 53 52 51 48 45 40 38 35 32 29 29 30 28 25 23 22 23 21 23 24 23 23 24 28 32 35 40 45 49 54 59 64 67
81 81 79 74 68 64 64 62 61 58 58 56 53 50 46 42 39 36 34 34 33 31 27 24 23 23 25 23 21 22 21 22 24 28 33 35 37 40 47 51 54 62 72
85 86 83 80 75 72 67 65 64 62 59 58 55 51 48 45 40 37 35 35 33 29 26 26 28 27 26 24 21 21 23 24 26 27 29 33 35 37 40 44 50 54 58
78 83 86 86 79 72 68 68 66 65 63 59 57 55 54 48 39 38 38 36 33 32 27 25 25 24 24 25 23 23 25 27 27 26 28 32 34 35 37 39 43 47 49
74 76 82 85 81 76 74 71 70 68 66 64 60 58 54 48 43 38 35 31 29 26 24 23 24 23 23 24 25 26 27 26 26 29 31 35 38 40 41 41 41 43 43
66 70 74 78 80 77 76 75 74 72 69 66 63 61 56 50 44 38 33 29 30 25 28 28 25 22 22 25 25 23 22 25 28 31 34 37 40 42 43 43 41 46 49
59 64 68 75 79 76 76 75 75 75 71 67 66 63 58 54 49 42 37 35 36 36 31 24 21 21 24 24 21 21 24 26 29 32 35 38 41 42 43 47 52 57 63
53 57 65 74 76 76 75 74 74 69 64 68 68 64 63 56 47 42 39 38 36 31 24 21 21 24 23 21 20 21 24 27 29 34 37 40 42 45 46 49 53 58 61
49 55 64 70 74 74 72 71 69 63 65 65 62 58 54 48 42 41 46 43 38 27 26 25 24 23 22 22 21 21 25 29 32 34 37 41 45 48 51 51 53 58 64
48 54 61 70 74 73 72 71 67 63 63 60 61 59 61 48 45 48 45 38 36 26 28 26 23 22 24 24 23 24 25 30 32 35 38 41 46 49 52 53 55 60 64
47 53 59 70 71 69 67 65 64 61 59 57 58 57 51 43 48 46 39 41 37 29 27 24 23 24 23 25 27 26 27 30 33 35 37 40 45 51 52 53 55 60 65
49 54 58 60 60 61 65 65 65 62 56 51 52 44 43 47 45 42 42 42 32 28 25 24 25 26 27 28 28 29 30 32 34 36 36 40 43 50 52 53 56 58 62
51 54 56 58 61 62 61 60 61 59 56 51 46 44 44 44 46 45 43 36 32 30 29 27 28 29 29 30 31 32 33 34 35 36 40 43 44 50 54 55 56 60 61
53 56 58 56 56 56 57 59 58 58 55 54 49 45 45 46 46 44 41 37 33 33 35 31 29 30 31 33 34 36 36 35 35 38 42 44 48 53 53 56 57 57 60
53 53 52 52 53 54 53 53 47 49 50 46 46 47 51 53 48 43 39 37 36 37 36 34 32 32 35 36 37 37 37 36 37 43 46 48 52 55 56 57 57 56 56
49 50 51 51 51 51 46 45 47 54 56 51 48 53 54 48 43 42 40 38 39 39 38 38 36 36 38 38 38 39 38 38 41 45 48 52 55 58 58 59 57 55 54
46 48 50 51 50 52 54 55 56 53 46 49 52 51 50 47 45 42 39 39 39 39 41 41 40 38 37 38 39 40 41 43 46 48 52 56 59 60 60 58 53 51 53
48 49 47 46 49 50 50 48 47 47 51 50 49 49 47 46 44 43 41 41 42 43 43 43 41 39 39 40 42 43 45 47 49 51 55 58 61 60 58 56 52 51 50
48 45 47 50 49 44 46 47 49 49 49 48 48 47 47 46 45 44 42 44 44 44 43 44 43 43 44 45 45 46 48 50 52 54 59 61 62 59 57 54 52 52 51
Wind_Direction_850mb
237 239 238 241 247 248 248 249 245 241 237 232 239 244 245 242 245 251 249 243 241 235 235 236 243 253 261 268 273 279 284 284 287 287 291 294 299 305 309 311 314 315 317
232 234 246 248 248 248 247 242 236 230 234 238 240 244 246 249 247 242 238 232 230 232 236 243 252 253 261 275 287 292 295 297 299 303 308 311 316 317 317 318 318 318 319
241 248 249 248 248 247 245 241 239 238 238 239 238 240 241 239 235 229 227 227 230 237 243 252 263 270 273 275 280 287 293 299 306 313 319 322 322 320 318 318 319 320 323
252 254 256 253 249 244 241 238 238 238 240 240 237 237 235 230 223 218 219 223 227 231 238 246 256 266 275 280 285 291 298 306 312 316 320 323 323 324 324 322 319 324 327
258 258 259 256 248 246 243 240 238 237 236 235 234 228 221 216 217 217 220 221 225 231 239 247 255 259 270 277 284 289 296 302 307 315 323 326 327 326 332 333 330 328 329
259 257 256 254 245 243 243 242 239 235 230 225 219 216 216 215 218 222 219 221 228 236 242 247 253 259 265 274 281 290 297 306 312 319 325 328 331 331 333 335 334 334 333
259 254 252 249 244 241 238 236 232 228 225 221 219 219 220 222 224 224 224 227 233 240 246 251 257 262 268 275 285 291 298 306 314 326 334 333 334 332 332 330 330 328 326
260 252 250 247 243 237 235 233 229 225 223 221 221 222 223 223 225 224 226 229 241 245 245 246 248 254 264 276 289 296 305 318 326 332 331 330 330 328 325 326 326 323 322
260 253 249 244 241 236 234 230 227 224 222 221 221 222 223 223 222 222 234 237 232 232 234 238 243 251 266 281 294 302 313 324 329 328 325 324 325 322 321 323 324 327 330
262 254 248 243 239 235 232 229 227 224 223 221 220 220 221 222 223 234 226 223 227 227 229 235 244 251 274 295 306 316 316 317 319 320 317 318 320 321 323 327 331 332 333
262 253 246 242 238 235 232 229 226 223 220 219 220 219 220 222 224 219 217 221 224 229 230 235 248 273 289 299 308 307 307 312 313 317 319 320 321 324 328 333 332 328 327
261 254 244 238 234 230 228 226 222 222 220 221 219 221 222 223 218 216 218 223 229 234 244 255 264 273 285 293 297 298 303 312 320 323 325 324 328 332 334 335 333 325 324
261 252 242 234 230 226 224 222 220 220 221 221 221 222 223 218 217 216 229 242 241 243 253 251 258 268 280 284 285 296 310 315 318 321 323 324 327 330 332 328 326 324 326
260 250 240 231 227 223 221 221 222 222 220 220 222 219 216 214 213 226 228 231 240 243 239 245 255 267 271 275 287 297 304 311 314 317 320 323 324 325 328 328 330 329 327
254 246 236 227 223 222 222 224 223 224 227 229 224 221 217 216 228 226 230 232 230 230 233 240 250 255 263 271 281 293 301 306 313 317 318 319 322 326 329 330 330 328 328
248 238 230 225 222 220 221 219 219 221 222 221 221 220 223 222 221 227 233 230 232 227 229 236 242 250 260 269 278 291 301 306 308 311 317 322 324 326 326 328 327 325 327
242 233 227 223 221 220 217 218 216 213 217 220 219 226 226 221 220 229 229 226 234 226 234 238 242 252 264 276 292 298 298 303 311 316 322 322 321 321 321 324 324 324 324
239 233 228 225 222 219 218 218 217 217 211 215 223 222 218 215 221 225 222 226 231 227 234 242 251 260 273 283 287 291 299 307 311 316 319 318 317 316 318 321 322 322 323
239 233 231 231 229 224 224 221 219 221 222 223 222 221 213 214 218 221 222 231 236 239 243 249 258 269 276 280 285 292 298 303 307 310 313 314 315 314 318 318 319 320 320
241 236 233 231 228 226 224 222 225 224 218 215 216 215 214 218 222 224 231 237 241 247 253 258 263 269 275 281 285 288 291 294 299 306 310 313 315 314 317 318 318 318 318
245 240 235 230 226 225 224 226 223 218 216 215 216 215 221 226 226 228 233 240 244 249 253 256 261 269 275 277 279 280 284 291 298 303 305 310 314 315 316 315 315 315 315
242 239 235 229 226 226 224 218 215 220 219 215 218 222 227 228 230 233 237 242 246 250 255 259 264 268 271 274 277 280 285 292 297 298 305 310 313 315 315 313 314 314 314
235 232 231 229 223 215 210 210 211 216 219 219 222 226 230 235 235 237 241 242 245 250 255 260 263 265 268 272 277 281 287 292 292 296 302 307 311 312 312 312 312 312 312
232 231 226 223 219 216 213 217 221 222 221 225 226 229 233 236 239 242 243 244 246 251 255 259 263 265 268 272 277 282 285 286 290 297 301 306 309 310 310 310 311 310 310
230 230 230 229 234 234 230 224 224 226 228 230 232 235 238 241 242 244 244 246 249 252 257 262 265 268 271 275 278 279 282 286 291 295 299 302 305 307 308 309 311 308 308
238 234 238 236 232 232 233 232 231 231 232 234 236 239 242 243 243 243 245 249 252 255 257 261 265 269 272 274 276 279 282 286 290 295 298 301 302 304 306 307 308 305 305